[[{"header":{"parameterUnit":"m.s-1","parameterCategory":1,"la1":30.2991,"la2":30.254,"lo1":-89.0895,"lo2":-89.0444,"dy":0.0017,"dx":0.0017,"nx":28,"ny":28,"refTime":"2026-02-02T03:00:00:Z","depth":0,"parameterNumber":2,"parameterNumberName":"U-component_of_WINDS"},"data":[0,0,0,0,0,0,0,0,0,0,0,0,0,0,0,0,0,0,0,0,0,0,0,0,0,0,0,0,0,0,0,0,0,0,0,0,0,0,0,0,0,0,0,0,0,0,0,0,0,0,0,0,0,0,0,0,0,0,2.8404,2.8405,0,2.8486,2.8486,2.8487,2.8455,2.8453,2.8451,2.8449,2.8533,2.8537,2.8541,0,0,0,0,0,0,0,0,0,0,0,0,0,2.8222,2.8226,2.8404,2.8405,2.8406,2.8485,2.8486,2.8488,2.8455,2.8453,2.8451,2.8449,2.8532,2.8537,2.8542,0,0,0,0,0,0,0,0,0,0,0,0,0,2.8302,2.8227,2.8404,2.8399,2.84,2.8485,2.8487,2.8488,2.8456,2.8453,2.845,2.8447,2.8531,2.8536,2.8542,2.8637,0,0,2.8561,2.8563,0,0,0,0,0,0,0,0,2.8298,2.8309,2.8399,2.84,2.8401,2.8457,2.8453,2.8538,2.8457,2.8435,2.8449,2.8446,2.851,2.8518,2.8539,2.8641,2.8644,2.8561,2.8565,2.8567,2.8569,0,0,0,0,0,0,0,2.8292,2.8305,2.8436,2.84,2.8401,2.8394,2.8402,2.8469,2.8488,2.8436,2.8434,2.8444,2.851,2.8534,2.8541,2.8645,2.8561,2.8566,2.857,2.8572,2.883,2.8833,0,0,0,0,0,0,2.8286,2.8301,2.8434,2.8439,2.8341,2.84,2.8409,2.8442,2.8487,2.8491,2.8447,2.8442,2.8525,2.8534,2.8544,2.8658,2.8567,2.8573,2.8577,2.8827,2.8831,2.8834,0,0,0,0,0,0,2.8282,2.8298,2.843,2.8369,2.8385,2.8406,2.8443,2.8445,2.8468,2.8495,2.8498,2.8467,2.8523,2.8536,2.8614,2.8661,2.8576,2.8581,2.8823,2.8828,2.8832,2.8887,0,0,0,0,0,0,2.8277,2.8297,2.8333,2.837,2.8389,2.8499,2.8446,2.8449,2.8479,2.8474,2.8515,2.8519,2.8522,2.8605,2.862,2.8668,2.8586,2.8819,2.8825,2.8831,2.8882,2.8894,2.8904,0,0,0,0,0,2.8271,2.8345,2.8335,2.8351,2.8434,2.8502,2.8512,2.8514,2.8483,2.8519,2.8536,2.8517,2.8653,2.8614,2.863,2.868,2.8816,2.8823,2.883,2.8876,2.8891,2.8904,0,0,0,0,0,0,2.8312,2.8349,2.8339,2.8427,2.8461,2.8496,2.8542,2.8529,2.8573,2.8567,2.8568,2.8578,2.8659,2.8677,2.8632,2.8775,2.873,2.8741,2.8759,2.8774,2.8785,2.8778,2.8591,0,0,0,0,0,2.8331,2.8383,2.8413,2.8488,2.8506,2.8521,2.8551,2.8549,2.8585,2.8599,2.8622,2.8658,2.8709,2.8742,2.879,2.8884,2.8893,2.8927,2.8938,2.8947,2.8956,2.9009,2.9024,2.8858,2.8858,2.8858,0,0,2.8371,2.8398,2.8431,2.8497,2.8523,2.8578,2.8533,2.8592,2.8632,2.8608,2.8684,2.8702,2.8742,2.8829,2.8869,2.8847,2.9004,2.8956,2.8963,2.8968,2.9018,2.9033,2.9047,2.8863,2.8862,2.8861,0,0,2.8472,2.8498,2.8563,2.8591,2.8632,2.8642,2.8658,2.8695,2.8707,2.8783,2.8766,2.8815,2.8902,2.8932,2.8958,2.9073,2.9057,2.9088,2.9147,2.9198,2.9211,2.9222,2.9264,2.9279,2.9098,2.9098,2.9098,0,2.8517,2.8598,2.8599,2.8659,2.8689,2.8671,2.8738,2.8765,2.882,2.8841,2.8816,2.8927,2.8952,2.9046,2.9075,2.9096,2.9115,2.9084,2.9209,2.922,2.9231,2.9271,2.9287,2.9101,2.9101,2.9101,2.91,0,2.8651,2.8707,2.8756,2.881,2.8845,2.8909,2.892,2.8956,2.8953,2.8965,2.9044,2.9074,2.9129,2.9151,2.9148,2.9246,2.9231,2.9208,2.9163,2.9251,2.9288,2.9303,2.9106,2.9105,2.9104,2.9103,0,0,2.8778,2.8834,2.8851,2.8876,2.8921,2.8965,2.9029,2.9082,2.9114,2.9153,2.9206,2.9282,2.9261,2.9291,2.9291,2.9336,2.9426,2.9307,2.9308,2.9328,2.9537,2.9554,2.9572,2.9416,2.9419,2.9421,2.9534,0,2.8883,2.8994,2.8998,2.91,2.9153,2.9137,2.9192,2.9226,2.9241,2.9288,2.9304,2.9357,2.9325,2.9343,2.9387,2.9405,2.9468,2.9397,2.9467,2.9469,2.9457,2.9591,2.961,2.9714,2.9548,2.9551,2.9552,0,2.9019,2.9064,2.9171,2.921,2.9232,2.9282,2.9332,2.9378,2.9417,2.9424,2.9459,2.9453,2.9519,2.9472,2.9563,2.9516,2.9544,2.9558,2.9562,2.9569,2.9516,2.9602,2.9747,2.9763,2.9575,2.9573,2.9572,0,2.9102,2.9189,2.9264,2.9286,2.9333,2.9369,2.939,2.9426,2.9459,2.9503,2.9525,2.9576,2.9605,2.9645,2.9653,2.9618,2.9745,2.9699,2.9754,2.9754,2.9781,2.9779,2.9933,2.9799,2.9799,2.9799,2.9798,0,2.9219,2.9285,2.9302,2.9349,2.9423,2.9428,2.9501,2.952,2.9553,2.9603,2.9593,2.9641,2.9649,2.9699,2.9706,2.9781,2.9794,2.9802,2.9803,2.9803,2.9802,2.9822,2.9815,2.9803,2.9802,2.9801,2.98,0,2.9323,2.9337,2.9419,2.9458,2.9469,2.9522,2.9556,2.9601,2.9615,2.9679,2.9694,2.9716,2.9774,2.9787,2.9856,2.9861,2.995,2.9944,2.9937,2.9937,2.9991,2.9986,3.0164,3.0187,3.0038,3.0039,3.004,0,2.9396,2.9447,2.9492,2.9525,2.9548,2.9602,2.9636,2.9643,2.9679,2.9728,2.9768,2.9825,2.9871,2.9965,2.9988,3.0041,3.0036,3.0095,3.0044,3.0043,3.0038,3.0034,3.004,3.0104,3.0106,3.0107,3.0108,0,2.9524,2.9529,2.9578,2.9631,2.9672,2.9713,2.9752,2.9781,2.9793,2.9834,2.9894,2.993,3.0001,3.0059,3.0113,3.0135,3.0125,3.0124,3.014,3.014,3.0134,3.0139,2.9964,3.012,3.0119,3.0118,3.0117,3.0117,2.9615,2.966,2.97,2.9755,2.9786,2.9824,2.9869,2.9889,2.9939,2.9998,2.9999,3.0065,3.0105,3.0176,3.0202,3.0254,3.0236,3.0258,3.0264,3.0269,3.0274,3.0126,3.0264,3.0263,3.0263,3.0263,3.0262,0,2.9743,2.9768,2.982,2.9876,2.992,2.9907,2.9951,2.9989,3.0047,3.0084,3.0131,3.0201,3.0257,3.0284,3.034,3.0377,3.0373,3.0391,3.0389,3.0394,3.0287,3.0268,3.0393,3.0393,3.0393,3.0393,3.0393,3.0393,2.9815,2.9891,2.9902,2.9993,3.0018,3.0083,3.0109,3.0144,3.0175,3.0253,3.03,3.0318,3.0353,3.0411,3.0463,3.0469,3.0491,3.0511,3.0515,3.0415,3.0401,3.0389,3.0371,3.0516,3.0516,3.0618,3.0619,3.062]},{"header":{"parameterUnit":"m.s-1","parameterCategory":1,"la1":30.2991,"la2":30.254,"lo1":-89.0895,"lo2":-89.0444,"dy":0.0017,"dx":0.0017,"nx":28,"ny":28,"refTime":"2026-02-02T03:00:00:Z","depth":0,"parameterNumber":3,"parameterNumberName":"V-component_of_WINDS"},"data":[0,0,0,0,0,0,0,0,0,0,0,0,0,0,0,0,0,0,0,0,0,0,0,0,0,0,0,0,0,0,0,0,0,0,0,0,0,0,0,0,0,0,0,0,0,0,0,0,0,0,0,0,0,0,0,0,0,0,4.6077,4.6078,0,4.6225,4.6226,4.6228,4.6216,4.6213,4.6211,4.6209,4.6357,4.6363,4.6369,0,0,0,0,0,0,0,0,0,0,0,0,0,4.5779,4.5785,4.6077,4.6079,4.608,4.6224,4.6226,4.6228,4.6216,4.6213,4.621,4.6208,4.6355,4.6362,4.637,0,0,0,0,0,0,0,0,0,0,0,0,0,4.5916,4.5787,4.6076,4.6092,4.6095,4.6224,4.6226,4.6229,4.6216,4.6213,4.621,4.6207,4.6353,4.6362,4.6371,4.6494,0,0,4.6398,4.6402,0,0,0,0,0,0,0,0,4.5908,4.5927,4.6088,4.6091,4.6094,4.6198,4.6176,4.6318,4.6217,4.617,4.6209,4.6205,4.6307,4.632,4.6355,4.6501,4.6507,4.6399,4.6405,4.6409,4.6411,0,0,0,0,0,0,0,4.5899,4.592,4.6135,4.609,4.6094,4.609,4.6105,4.6203,4.6255,4.6174,4.6173,4.6191,4.6308,4.6346,4.6358,4.6509,4.6399,4.6407,4.6413,4.6416,4.676,4.6764,0,0,0,0,0,0,4.5886,4.5913,4.613,4.614,4.5991,4.6098,4.6115,4.6168,4.6254,4.6264,4.6194,4.619,4.6332,4.6347,4.6363,4.6512,4.6408,4.6417,4.6422,4.6757,4.6761,4.6765,0,0,0,0,0,0,4.588,4.5906,4.6124,4.6026,4.6054,4.6106,4.6166,4.6173,4.6211,4.6269,4.6278,4.6223,4.633,4.635,4.6461,4.6517,4.6421,4.6429,4.6752,4.6758,4.6763,4.681,0,0,0,0,0,0,4.5871,4.5904,4.5952,4.6027,4.6059,4.6222,4.6169,4.6178,4.6227,4.6223,4.6299,4.6309,4.6329,4.6447,4.647,4.6527,4.6436,4.6748,4.6755,4.6762,4.6804,4.6817,4.6828,0,0,0,0,0,4.5861,4.596,4.5955,4.5981,4.6121,4.6225,4.6243,4.6265,4.6231,4.628,4.6317,4.6306,4.6506,4.6459,4.6484,4.6545,4.6744,4.6753,4.6761,4.6799,4.6814,4.6828,0,0,0,0,0,0,4.589,4.597,4.5966,4.6092,4.6152,4.6223,4.6285,4.6281,4.6351,4.6345,4.6368,4.6385,4.6496,4.6531,4.6477,4.6667,4.6621,4.6634,4.6641,4.6656,4.6668,4.6657,4.6444,0,0,0,0,0,4.5911,4.599,4.6055,4.616,4.619,4.6232,4.6278,4.629,4.6353,4.6378,4.6423,4.6483,4.6559,4.6609,4.6683,4.6808,4.6824,4.6862,4.6874,4.6883,4.6895,4.6962,4.698,4.6793,4.6793,4.6793,0,0,4.5955,4.6008,4.6057,4.6167,4.6215,4.6294,4.6254,4.634,4.6399,4.639,4.6498,4.6533,4.6601,4.6719,4.6774,4.6752,4.695,4.6894,4.6901,4.6908,4.6973,4.699,4.7006,4.6798,4.6797,4.6797,0,0,4.6077,4.6126,4.6218,4.6266,4.6339,4.6366,4.6388,4.6459,4.6482,4.659,4.6585,4.6654,4.6785,4.6834,4.6876,4.7012,4.7004,4.7035,4.7098,4.7163,4.7177,4.719,4.7239,4.7256,4.7046,4.7047,4.7047,0,4.6123,4.6244,4.6265,4.6353,4.64,4.6396,4.6488,4.6533,4.6626,4.6658,4.6633,4.6796,4.6842,4.697,4.7003,4.7037,4.7062,4.7028,4.7174,4.7187,4.72,4.7246,4.7264,4.705,4.705,4.7049,4.7049,0,4.6296,4.638,4.6446,4.6536,4.659,4.668,4.6713,4.6765,4.6771,4.6799,4.6908,4.6962,4.7046,4.7077,4.7083,4.7206,4.719,4.7169,4.7123,4.722,4.7264,4.7282,4.7055,4.7053,4.7052,4.7052,0,0,4.6444,4.6542,4.6566,4.6606,4.6684,4.6749,4.6836,4.6919,4.6963,4.7025,4.7099,4.7208,4.7189,4.7236,4.7247,4.7304,4.7407,4.7276,4.7278,4.7298,4.7544,4.756,4.758,4.7402,4.7405,4.7408,4.7538,0,4.6573,4.6731,4.6751,4.6889,4.6966,4.6961,4.7037,4.7092,4.712,4.7188,4.7218,4.7296,4.7264,4.7292,4.7348,4.7383,4.7457,4.7374,4.7469,4.7472,4.7454,4.7603,4.7621,4.7742,4.7555,4.7558,4.756,0,4.6747,4.6815,4.6961,4.7027,4.706,4.7129,4.7204,4.7269,4.7331,4.7347,4.7398,4.7402,4.749,4.7439,4.756,4.7503,4.7542,4.7565,4.757,4.7581,4.7523,4.7618,4.7781,4.7799,4.7588,4.7585,4.7583,0,4.6839,4.6967,4.7071,4.7105,4.7185,4.7232,4.7267,4.7326,4.7373,4.7438,4.7469,4.7543,4.7584,4.764,4.7662,4.7623,4.7782,4.7733,4.7797,4.7796,4.7832,4.783,4.8004,4.7856,4.7856,4.7856,4.7855,0,4.6983,4.7072,4.7113,4.7177,4.7277,4.7297,4.7394,4.7427,4.7478,4.7547,4.7546,4.761,4.7636,4.7703,4.7721,4.7818,4.7836,4.785,4.7854,4.7851,4.785,4.7879,4.7871,4.786,4.7859,4.7858,4.7858,0,4.7104,4.7135,4.7247,4.7313,4.7331,4.7401,4.7457,4.7517,4.7543,4.763,4.7652,4.7693,4.7772,4.7799,4.7895,4.7907,4.8019,4.8016,4.7999,4.8,4.8063,4.8057,4.8262,4.829,4.8124,4.8125,4.8126,0,4.7194,4.7263,4.7335,4.7382,4.7418,4.7493,4.7541,4.7563,4.7612,4.7686,4.7737,4.7816,4.788,4.8006,4.8044,4.8116,4.8115,4.8181,4.8126,4.812,4.8116,4.8112,4.8118,4.8192,4.8194,4.8195,4.8197,0,4.735,4.7362,4.7432,4.7507,4.7564,4.7624,4.7682,4.7719,4.7749,4.7804,4.7885,4.7935,4.8032,4.811,4.8184,4.8218,4.8212,4.8213,4.8232,4.823,4.8218,4.8225,4.8028,4.8209,4.8208,4.8207,4.8206,4.8206,4.7459,4.7519,4.7579,4.7657,4.7702,4.7755,4.7815,4.7849,4.7917,4.7999,4.8006,4.8094,4.815,4.8248,4.8285,4.8353,4.8334,4.8361,4.8368,4.8375,4.8379,4.8206,4.8366,4.8366,4.8365,4.8365,4.8365,0,4.7616,4.7653,4.7724,4.7805,4.7865,4.7854,4.7916,4.7967,4.8044,4.8098,4.8161,4.8253,4.8327,4.8369,4.8443,4.8488,4.8488,4.8507,4.8505,4.8512,4.8392,4.8369,4.8507,4.8507,4.8507,4.8507,4.8507,4.8507,4.7704,4.7806,4.7823,4.7946,4.7983,4.8069,4.8105,4.8154,4.8196,4.83,4.8362,4.8389,4.8437,4.8514,4.8581,4.8591,4.8618,4.864,4.8648,4.8535,4.8521,4.8507,4.8485,4.8645,4.8646,4.8763,4.8764,4.8765]}]]